Probability
2 2 1 1 0 1 2 3 3 2 1 1 0 0 0 0 0 0 0 0 0 0 0 0 0 0 0 1 2 2 2 3 3 3 3 3 2 1
3 2 1 1 1 1 3 3 3 3 2 1 0 0 0 0 0 0 0 0 0 0 0 0 0 0 0 0 1 1 1 2 2 2 2 2 2 2
2 1 1 1 2 3 4 4 3 3 3 2 1 0 0 0 0 0 0 0 0 0 0 0 0 0 0 0 0 0 0 1 1 1 1 1 1 1
0 0 0 1 4 5 6 6 5 4 4 3 2 1 0 0 0 0 0 0 0 0 0 0 0 0 0 0 0 0 0 0 0 0 0 0 0 0
1 1 1 2 4 6 7 7 6 5 5 4 3 1 0 0 0 0 0 0 0 0 0 0 0 0 0 0 0 0 0 0 0 0 0 0 0 0
3 4 3 3 3 4 5 5 5 6 6 5 3 1 0 0 0 1 1 1 1 1 1 1 0 0 0 0 0 0 0 0 0 0 0 0 0 0
5 5 4 3 3 2 2 2 3 4 4 3 3 2 1 0 1 2 2 2 2 2 2 2 1 1 1 1 0 0 0 0 0 0 0 0 0 0
5 4 3 2 2 1 0 0 1 1 1 1 3 3 2 2 2 3 3 3 3 3 3 3 3 2 2 2 1 0 0 0 0 0 0 0 0 0
5 3 1 1 1 0 0 1 1 1 1 1 2 4 4 3 3 3 3 3 3 3 3 3 3 3 3 2 1 0 0 0 0 0 0 0 0 0
3 2 1 1 0 0 0 1 2 2 2 1 1 3 4 3 3 3 4 3 3 3 4 3 3 3 2 2 1 0 0 0 0 0 0 0 0 0
2 2 2 1 0 0 0 1 2 3 2 1 0 1 1 1 1 3 4 4 3 3 3 3 2 1 1 1 0 0 0 0 0 0 0 0 0 0
2 2 1 1 0 0 0 0 1 2 2 1 0 0 1 1 1 2 4 4 4 3 2 1 1 0 0 0 0 0 0 0 0 0 0 0 0 0
1 1 0 0 0 0 0 0 0 1 1 1 1 1 2 2 2 3 3 4 3 3 2 1 1 0 0 0 0 0 0 0 0 0 0 0 0 0
0 0 0 0 0 0 0 0 0 0 1 2 2 3 3 3 3 3 3 3 3 3 3 3 2 1 1 0 0 0 0 0 0 0 0 0 0 0
0 0 0 0 0 0 0 0 0 1 2 3 3 3 3 3 3 3 3 3 3 3 3 3 3 3 2 1 0 0 0 0 0 0 0 0 0 0
1 1 1 1 1 1 1 1 1 2 3 3 3 2 2 3 3 3 3 3 3 3 3 3 3 3 2 1 0 0 0 0 0 0 0 0 0 0
2 2 2 2 2 2 2 2 3 3 3 3 3 2 2 2 2 2 2 2 2 2 2 3 3 3 3 1 0 0 0 0 0 0 0 0 0 0
3 3 3 3 3 3 3 3 3 3 2 2 2 1 1 1 1 1 1 1 1 1 1 1 2 2 2 1 0 0 0 0 0 0 0 0 0 0
3 3 3 3 2 2 2 2 2 1 1 1 1 0 0 0 0 0 0 0 0 0 0 0 1 1 1 1 0 0 0 0 0 0 0 0 0 0
3 3 2 1 1 1 1 1 1 0 0 0 0 0 0 0 0 0 0 0 0 0 0 0 0 0 0 0 0 0 0 0 0 0 0 0 0 0
2 1 1 0 0 0 0 0 0 0 0 0 0 0 0 0 0 0 0 0 0 0 0 0 0 0 0 0 0 0 0 0 0 0 0 0 0 0
1 0 0 0 0 0 0 0 0 0 0 0 0 0 0 0 0 0 0 0 0 0 0 0 0 0 0 0 0 0 0 0 0 0 0 0 0 0
0 0 0 0 0 0 0 0 0 0 0 0 0 0 0 0 0 0 0 0 0 0 0 0 0 0 0 0 0 0 0 0 0 0 0 0 0 0
Wind_Speed
3 3 2 2 2 2 2 3 3 2 3 3 2 2 1 2 3 4 5 8 11 12 12 12 12 12 11 11 10 10 10 10 10 10 10 10 10 11
3 3 3 2 1 1 1 2 3 3 3 3 2 2 2 2 3 3 4 7 9 10 11 12 12 12 11 10 10 10 10 10 10 10 10 10 10 10
2 2 3 2 1 1 1 1 1 2 3 3 2 2 1 2 2 2 3 3 4 8 9 10 10 10 10 10 9 9 9 9 9 9 9 9 9 9
2 1 2 1 1 1 1 1 1 2 2 3 2 1 2 2 2 2 2 2 2 5 7 8 8 9 9 9 8 8 8 8 8 7 7 7 7 8
2 2 2 1 1 1 1 1 1 1 1 2 2 2 2 1 1 2 2 2 2 2 3 5 6 6 6 6 6 6 7 7 7 8 8 7 7 7
1 1 1 1 2 1 1 1 1 1 1 1 1 2 2 2 1 1 2 2 2 2 2 1 2 4 5 5 5 5 5 5 6 6 6 6 6 6
0 0 1 1 1 0 0 1 0 0 0 0 1 2 2 2 2 1 2 2 2 1 1 1 0 1 2 3 3 3 4 4 4 4 4 4 5 5
1 0 0 1 2 2 3 2 2 1 0 0 1 1 3 2 2 1 1 1 2 2 0 2 1 1 1 1 1 2 2 3 3 3 4 4 4 5
1 1 1 2 2 1 2 4 3 3 1 2 1 2 3 3 2 2 1 2 3 2 0 1 1 1 1 1 1 2 2 2 2 3 3 4 4 4
2 2 2 2 3 2 2 3 3 2 1 0 1 2 3 3 2 2 2 2 2 1 0 1 1 1 2 1 2 1 1 2 2 3 3 4 4 4
3 3 3 2 3 3 3 3 3 3 3 3 3 3 4 4 2 1 1 1 2 2 1 0 1 1 1 1 2 2 2 2 2 3 3 3 3 2
2 3 5 5 6 5 3 2 2 2 3 4 4 5 5 5 5 2 0 0 1 2 2 0 1 1 1 2 1 1 2 3 3 3 3 2 1 0
2 2 3 6 6 6 4 2 1 1 2 2 3 4 4 4 4 3 2 1 1 1 2 0 0 0 0 2 2 1 1 1 1 2 2 2 2 0
2 1 2 6 6 6 5 5 6 4 2 3 3 3 3 3 4 4 3 2 0 1 2 0 1 1 0 1 2 2 2 1 0 1 1 2 2 2
3 4 6 7 6 6 7 8 6 4 3 3 3 3 2 3 3 3 4 3 3 3 3 1 0 0 1 1 2 1 1 2 1 0 1 1 1 1
4 5 7 8 7 6 6 5 4 3 2 2 2 2 3 3 3 3 3 3 3 4 4 4 2 1 0 1 1 1 1 1 1 1 1 1 1 1
4 4 5 5 5 4 4 4 4 4 4 3 3 3 3 3 3 3 2 2 2 3 4 3 3 2 1 1 1 1 1 1 1 0 0 1 2 2
6 5 4 4 4 3 3 4 4 3 3 3 3 3 3 3 3 3 3 2 2 2 3 2 2 2 3 3 1 0 0 1 1 1 0 0 1 2
7 5 4 3 3 3 3 3 3 3 3 3 3 3 3 3 3 3 3 2 2 3 3 2 2 1 2 3 4 2 1 1 1 1 1 0 1 3
5 4 3 3 3 3 3 3 3 3 3 3 3 3 3 3 3 3 3 3 3 3 3 3 2 1 1 2 2 3 3 1 1 1 1 1 1 2
3 3 3 3 3 3 3 3 3 3 3 3 3 3 3 3 3 3 3 4 3 2 3 3 4 4 1 1 1 3 3 3 2 1 1 1 2 2
3 3 3 3 3 3 3 3 3 3 4 4 3 3 3 3 3 4 3 3 3 2 2 3 4 3 2 2 1 2 3 3 4 4 2 2 2 2
3 3 3 3 3 3 3 3 4 3 3 3 3 3 4 3 3 3 3 3 3 3 3 3 3 3 2 1 1 2 2 3 3 3 4 6 5 4
Wind_Direction
227 230 231 235 224 212 191 179 179 249 279 279 280 278 251 220 231 221 225 226 220 220 222 224 225 226 226 225 226 228 230 233 235 236 235 237 238 240
221 228 241 243 244 231 218 208 187 193 243 267 253 274 275 264 237 228 230 233 228 225 224 225 225 225 226 226 225 227 228 229 232 234 235 235 236 237
232 219 237 234 236 250 244 230 212 188 235 273 267 272 260 277 286 262 249 239 236 229 227 228 228 226 226 227 228 228 229 229 231 233 232 231 230 232
224 212 246 239 243 259 256 264 252 220 213 262 286 292 269 269 272 271 272 259 245 235 229 230 228 224 222 224 225 226 227 228 229 231 233 234 236 237
200 200 242 224 255 269 259 266 268 269 221 240 278 278 276 309 318 303 304 297 285 271 236 226 224 217 215 218 219 223 227 229 228 228 231 233 234 235
180 196 231 212 231 251 274 283 273 285 275 265 287 304 298 308 341 319 319 313 306 321 306 239 220 214 215 216 215 219 222 225 227 230 231 232 234 236
141 140 117 92 76 58 352 299 294 312 16 12 315 326 323 335 316 291 297 307 313 321 306 298 268 228 234 229 222 216 215 217 221 227 235 239 241 241
134 82 52 36 27 39 41 52 81 114 117 33 301 293 291 281 285 288 281 307 304 309 329 308 15 280 272 244 232 201 197 205 217 229 240 248 250 247
110 94 26 27 32 33 38 53 53 55 112 179 224 268 278 276 284 287 265 252 257 269 221 289 309 283 288 299 246 226 223 218 223 238 246 253 258 256
80 94 87 29 22 33 52 50 47 29 15 70 225 265 278 280 257 247 249 277 291 313 14 273 302 295 307 333 342 341 307 280 266 263 256 252 254 255
64 71 81 68 34 66 78 63 33 6 15 21 11 360 348 343 346 17 345 5 317 319 349 81 306 310 316 306 328 357 338 311 296 286 273 264 260 260
57 50 56 59 52 64 85 83 52 344 358 10 7 1 0 3 12 25 217 183 280 309 323 32 321 359 328 304 313 337 334 319 312 306 301 306 302 280
69 43 35 46 51 54 66 67 30 6 22 25 11 6 8 7 4 1 6 115 174 261 294 93 330 2 242 292 309 311 324 328 326 322 322 320 315 227
92 57 50 56 57 55 57 51 52 52 43 34 27 13 3 353 348 353 2 8 351 232 286 117 177 198 199 277 292 302 301 304 326 326 337 356 352 334
83 75 70 64 60 52 44 44 43 44 43 38 20 353 335 332 346 358 3 9 10 5 10 14 97 206 173 213 253 274 290 299 311 8 347 333 305 323
71 65 62 55 50 43 38 36 34 39 44 27 358 346 351 2 3 358 359 354 4 351 354 4 3 18 277 271 225 282 296 281 315 335 345 330 322 307
91 68 56 51 46 38 33 26 22 26 29 14 10 6 3 0 349 346 355 1 6 342 339 346 358 18 31 307 296 287 294 315 290 277 17 342 314 309
86 75 64 57 50 38 31 22 18 19 15 14 15 12 3 355 348 345 351 358 349 333 329 330 344 358 360 354 354 252 318 283 296 307 134 140 298 309
80 75 68 60 47 37 31 28 17 9 14 20 16 5 359 357 354 349 346 345 337 326 321 328 350 16 360 330 322 334 237 281 329 338 315 244 254 283
74 79 69 55 45 39 31 24 17 16 16 12 7 3 1 357 352 348 346 344 338 338 340 341 347 345 277 263 280 310 320 264 235 272 300 323 307 306
66 66 63 57 48 40 32 30 26 20 13 9 6 1 356 354 350 348 350 355 360 359 350 331 311 316 302 21 353 325 315 325 311 236 237 320 328 329
73 68 60 57 50 40 35 34 31 22 14 10 359 354 351 352 350 348 348 347 342 340 332 322 332 355 18 20 337 313 314 328 351 359 338 222 201 220
82 76 66 56 49 45 42 36 33 18 8 0 354 349 348 350 347 349 348 347 343 344 346 344 348 2 3 359 330 309 319 327 335 350 338 327 312 291